[[{"header":{"parameterUnit":"m.s-1","parameterCategory":1,"la1":30.2991,"la2":30.254,"lo1":-89.0895,"lo2":-89.0444,"dy":0.0017,"dx":0.0017,"nx":28,"ny":28,"refTime":"2023-09-24T03:00:00:Z","depth":0,"parameterNumber":2,"parameterNumberName":"U-component_of_WINDS"},"data":[0,0,0,0,0,0,0,0,0,0,0,0,0,0,0,0,0,0,0,0,0,0,0,0,0,0,0,0,0,0,0,0,0,0,0,0,0,0,0,0,0,0,0,0,0,0,0,0,0,0,0,0,0,0,0,0,0,0,1.1845,1.1845,0,1.1806,1.1805,1.1805,1.1801,1.1801,1.1801,1.1802,1.1762,1.1761,1.1759,0,0,0,0,0,0,0,0,0,0,0,0,0,1.192,1.1918,1.1845,1.1845,1.1844,1.1806,1.1805,1.1805,1.1801,1.1801,1.1802,1.1802,1.1763,1.1761,1.1759,0,0,0,0,0,0,0,0,0,0,0,0,0,1.1884,1.1918,1.1846,1.1838,1.1837,1.1806,1.1805,1.1804,1.18,1.1801,1.1802,1.1802,1.1763,1.1761,1.1759,1.1734,0,0,1.1753,1.1752,0,0,0,0,0,0,0,0,1.1886,1.1882,1.1839,1.1838,1.1837,1.1809,1.1817,1.1781,1.18,1.1814,1.1802,1.1803,1.1777,1.1774,1.1765,1.1732,1.173,1.1752,1.1751,1.175,1.175,0,0,0,0,0,0,0,1.1889,1.1883,1.183,1.1839,1.1837,1.1837,1.1832,1.181,1.1793,1.1813,1.1813,1.1808,1.1777,1.1767,1.1764,1.173,1.1752,1.1751,1.1749,1.1748,1.1673,1.1673,0,0,0,0,0,0,1.1893,1.1885,1.1831,1.1829,1.1864,1.1835,1.183,1.1817,1.1793,1.179,1.1807,1.1808,1.1771,1.1767,1.1763,1.1731,1.175,1.1748,1.1747,1.1674,1.1673,1.1672,0,0,0,0,0,0,1.1894,1.1888,1.1833,1.1857,1.185,1.1833,1.1819,1.1816,1.1807,1.1789,1.1786,1.1801,1.1771,1.1766,1.1741,1.173,1.1747,1.1745,1.1675,1.1674,1.1673,1.1667,0,0,0,0,0,0,1.1896,1.1888,1.1878,1.1857,1.1848,1.1811,1.1818,1.1815,1.1803,1.1803,1.1782,1.1779,1.1771,1.1744,1.1739,1.1727,1.1744,1.1676,1.1674,1.1673,1.1669,1.1666,1.1665,0,0,0,0,0,1.1899,1.1878,1.1877,1.1871,1.1835,1.181,1.1805,1.1796,1.1802,1.1792,1.178,1.178,1.1732,1.1742,1.1735,1.1723,1.1676,1.1675,1.1673,1.1669,1.1667,1.1665,0,0,0,0,0,0,1.1899,1.1875,1.1874,1.1846,1.183,1.1809,1.1796,1.1794,1.1776,1.1777,1.1767,1.1763,1.1738,1.1728,1.1739,1.1697,1.1705,1.1702,1.1704,1.1701,1.1699,1.1702,1.1742,0,0,0,0,0,1.1896,1.1877,1.1858,1.1835,1.1827,1.1813,1.1802,1.1796,1.1779,1.1773,1.1759,1.1744,1.1725,1.1713,1.1695,1.1668,1.1663,1.1656,1.1654,1.1653,1.165,1.1634,1.1631,1.1667,1.1667,1.1667,0,0,1.1889,1.1874,1.1862,1.1834,1.1821,1.1802,1.1807,1.1787,1.1773,1.177,1.1745,1.1735,1.1716,1.169,1.1678,1.1681,1.1639,1.1651,1.1649,1.1647,1.1632,1.1629,1.1626,1.1666,1.1666,1.1666,0,0,1.1866,1.1853,1.1832,1.1819,1.1799,1.179,1.1786,1.1765,1.1758,1.1733,1.173,1.1714,1.1682,1.1669,1.1658,1.1632,1.163,1.1626,1.1615,1.16,1.1598,1.1595,1.1585,1.1581,1.1624,1.1624,1.1624,0,1.186,1.1831,1.1822,1.1801,1.1789,1.1786,1.1765,1.1753,1.1728,1.172,1.1724,1.1684,1.1672,1.1642,1.1636,1.1627,1.1621,1.1628,1.1599,1.1596,1.1593,1.1583,1.158,1.1624,1.1624,1.1624,1.1624,0,1.1824,1.1804,1.179,1.1765,1.1752,1.1731,1.172,1.1707,1.1703,1.1694,1.1669,1.1654,1.1632,1.1625,1.1622,1.1595,1.1598,1.1601,1.1608,1.159,1.158,1.1576,1.1623,1.1623,1.1623,1.1623,0,0,1.1799,1.1771,1.1765,1.1754,1.1733,1.1717,1.1697,1.1676,1.1665,1.1649,1.1631,1.1605,1.1607,1.1595,1.159,1.1577,1.1556,1.1581,1.1581,1.1576,1.1525,1.1522,1.1518,1.1556,1.1555,1.1554,1.1526,0,1.1773,1.1736,1.1728,1.1696,1.1677,1.1674,1.1656,1.1641,1.1632,1.1615,1.1606,1.1587,1.1592,1.1585,1.1572,1.1561,1.1545,1.1563,1.1539,1.1538,1.1542,1.1513,1.151,1.1484,1.1523,1.1522,1.1522,0,1.1737,1.172,1.1685,1.1666,1.1658,1.1642,1.1622,1.1606,1.1589,1.1584,1.1571,1.1567,1.1546,1.1556,1.1527,1.1539,1.1529,1.1522,1.1521,1.1517,1.1528,1.1508,1.1476,1.1472,1.1516,1.1516,1.1517,0,1.1721,1.1689,1.1664,1.1655,1.1632,1.1621,1.1611,1.1595,1.1583,1.1566,1.1558,1.1539,1.1528,1.1514,1.1506,1.1514,1.1477,1.1486,1.1472,1.1472,1.1463,1.1463,1.1428,1.1459,1.1459,1.1459,1.1459,0,1.1692,1.1671,1.1657,1.1641,1.1618,1.1609,1.1587,1.1577,1.1563,1.1546,1.1543,1.1527,1.1518,1.1501,1.1494,1.1471,1.1467,1.1462,1.146,1.1461,1.1461,1.1453,1.1454,1.1458,1.1458,1.1459,1.1459,0,1.1669,1.1659,1.1632,1.1612,1.1607,1.1591,1.1574,1.156,1.1551,1.153,1.1525,1.1511,1.1491,1.1482,1.1457,1.1453,1.1426,1.1427,1.1431,1.1431,1.1416,1.1417,1.1373,1.1367,1.1403,1.1403,1.1403,0,1.1651,1.1634,1.1614,1.1602,1.1591,1.1573,1.156,1.1552,1.1539,1.1519,1.1507,1.1486,1.1469,1.1438,1.1426,1.1408,1.1406,1.1393,1.1404,1.1405,1.1405,1.1405,1.1403,1.139,1.139,1.1389,1.1389,0,1.1619,1.1614,1.1596,1.1576,1.1561,1.1545,1.153,1.152,1.151,1.1496,1.1475,1.1462,1.1437,1.1416,1.1397,1.1387,1.1386,1.1386,1.1381,1.1381,1.1384,1.1381,1.1425,1.1387,1.1387,1.1387,1.1387,1.1387,1.1596,1.1582,1.1564,1.1544,1.1532,1.1517,1.1502,1.1492,1.1474,1.1453,1.1449,1.1427,1.1411,1.1385,1.1375,1.1358,1.1361,1.1355,1.1353,1.1351,1.1349,1.1389,1.1354,1.1355,1.1355,1.1355,1.1355,0,1.1563,1.1552,1.1534,1.1511,1.1496,1.1496,1.1479,1.1466,1.1446,1.1432,1.1415,1.1391,1.1372,1.136,1.134,1.1329,1.1328,1.1324,1.1324,1.1321,1.1348,1.1354,1.1325,1.1325,1.1325,1.1325,1.1325,1.1325,1.1543,1.1518,1.1512,1.1481,1.147,1.1448,1.1438,1.1425,1.1413,1.1386,1.137,1.1362,1.1348,1.1327,1.131,1.1307,1.1299,1.1295,1.1292,1.1317,1.132,1.1322,1.1327,1.1294,1.1293,1.1266,1.1266,1.1265]},{"header":{"parameterUnit":"m.s-1","parameterCategory":1,"la1":30.2991,"la2":30.254,"lo1":-89.0895,"lo2":-89.0444,"dy":0.0017,"dx":0.0017,"nx":28,"ny":28,"refTime":"2023-09-24T03:00:00:Z","depth":0,"parameterNumber":3,"parameterNumberName":"V-component_of_WINDS"},"data":[0,0,0,0,0,0,0,0,0,0,0,0,0,0,0,0,0,0,0,0,0,0,0,0,0,0,0,0,0,0,0,0,0,0,0,0,0,0,0,0,0,0,0,0,0,0,0,0,0,0,0,0,0,0,0,0,0,0,2.1136,2.1136,0,2.1149,2.1149,2.1149,2.1149,2.1149,2.1149,2.1149,2.116,2.116,2.1161,0,0,0,0,0,0,0,0,0,0,0,0,0,2.111,2.1111,2.1136,2.1136,2.1136,2.1149,2.1149,2.1149,2.1149,2.1149,2.1149,2.1149,2.116,2.116,2.1161,0,0,0,0,0,0,0,0,0,0,0,0,0,2.1122,2.1111,2.1136,2.1138,2.1138,2.1149,2.1149,2.1149,2.1149,2.1149,2.1149,2.1148,2.116,2.116,2.1161,2.117,0,0,2.1163,2.1163,0,0,0,0,0,0,0,0,2.1121,2.1123,2.1137,2.1138,2.1138,2.1147,2.1144,2.1156,2.1149,2.1145,2.1149,2.1148,2.1156,2.1157,2.116,2.117,2.1171,2.1163,2.1163,2.1164,2.1164,0,0,0,0,0,0,0,2.112,2.1122,2.1141,2.1138,2.1138,2.1137,2.1139,2.1146,2.1151,2.1145,2.1145,2.1147,2.1156,2.1159,2.116,2.1171,2.1163,2.1164,2.1164,2.1164,2.1189,2.1189,0,0,0,0,0,0,2.1119,2.1122,2.114,2.1141,2.1129,2.1138,2.114,2.1144,2.1151,2.1152,2.1147,2.1147,2.1158,2.1159,2.116,2.117,2.1164,2.1164,2.1165,2.1188,2.1189,2.1189,0,0,0,0,0,0,2.1119,2.1121,2.114,2.1131,2.1134,2.1139,2.1144,2.1145,2.1148,2.1153,2.1154,2.1149,2.1158,2.1159,2.1167,2.1171,2.1165,2.1165,2.1188,2.1188,2.1189,2.1191,0,0,0,0,0,0,2.1118,2.1121,2.1125,2.1132,2.1134,2.1147,2.1144,2.1145,2.1149,2.1149,2.1155,2.1156,2.1158,2.1166,2.1168,2.1172,2.1166,2.1188,2.1188,2.1189,2.1191,2.1192,2.1192,0,0,0,0,0,2.1117,2.1125,2.1125,2.1127,2.1139,2.1148,2.1149,2.1152,2.1149,2.1153,2.1156,2.1156,2.117,2.1167,2.1169,2.1173,2.1188,2.1188,2.1189,2.1191,2.1192,2.1192,0,0,0,0,0,0,2.1118,2.1126,2.1126,2.1136,2.1141,2.1148,2.1152,2.1153,2.1158,2.1158,2.116,2.1161,2.1169,2.1172,2.1168,2.1181,2.1179,2.118,2.1179,2.118,2.1181,2.118,2.1166,0,0,0,0,0,2.1119,2.1126,2.1132,2.1141,2.1143,2.1147,2.1151,2.1152,2.1158,2.116,2.1163,2.1168,2.1173,2.1177,2.1183,2.1191,2.1192,2.1195,2.1196,2.1196,2.1197,2.1201,2.1202,2.1191,2.1191,2.1191,0,0,2.1122,2.1127,2.1131,2.1141,2.1145,2.1151,2.1149,2.1156,2.116,2.1161,2.1168,2.1171,2.1176,2.1185,2.1188,2.1187,2.12,2.1197,2.1197,2.1198,2.1202,2.1203,2.1204,2.1191,2.1191,2.1191,0,0,2.1131,2.1135,2.1143,2.1147,2.1153,2.1156,2.1157,2.1164,2.1166,2.1174,2.1174,2.1179,2.1188,2.1192,2.1195,2.1204,2.1204,2.1206,2.121,2.1214,2.1214,2.1215,2.1218,2.1219,2.1207,2.1207,2.1207,0,2.1133,2.1143,2.1146,2.1153,2.1157,2.1158,2.1164,2.1168,2.1176,2.1178,2.1177,2.1188,2.1192,2.1201,2.1203,2.1206,2.1207,2.1205,2.1214,2.1215,2.1216,2.1218,2.122,2.1207,2.1207,2.1207,2.1207,0,2.1146,2.1153,2.1158,2.1165,2.117,2.1176,2.118,2.1184,2.1185,2.1187,2.1195,2.1199,2.1205,2.1207,2.1208,2.1216,2.1215,2.1214,2.1211,2.1217,2.122,2.1221,2.1207,2.1207,2.1207,2.1207,0,0,2.1155,2.1164,2.1166,2.1169,2.1176,2.1181,2.1187,2.1194,2.1197,2.1202,2.1207,2.1215,2.1214,2.1217,2.1218,2.1222,2.1228,2.122,2.122,2.1221,2.1236,2.1237,2.1238,2.1228,2.1228,2.1228,2.1236,0,2.1164,2.1176,2.1179,2.1189,2.1195,2.1195,2.1201,2.1205,2.1207,2.1212,2.1215,2.122,2.1218,2.122,2.1224,2.1227,2.1231,2.1226,2.1232,2.1232,2.123,2.124,2.124,2.1247,2.1237,2.1237,2.1237,0,2.1176,2.1182,2.1192,2.1198,2.12,2.1205,2.1211,2.1216,2.122,2.1222,2.1226,2.1226,2.1232,2.1229,2.1237,2.1234,2.1236,2.1238,2.1238,2.1238,2.1235,2.124,2.125,2.1251,2.1239,2.1239,2.1239,0,2.1181,2.1191,2.1199,2.1202,2.1208,2.1212,2.1215,2.1219,2.1223,2.1227,2.1229,2.1235,2.1237,2.1241,2.1243,2.1241,2.125,2.1248,2.1251,2.1251,2.1253,2.1253,2.1263,2.1255,2.1255,2.1255,2.1255,0,2.119,2.1197,2.1201,2.1206,2.1213,2.1215,2.1222,2.1225,2.1229,2.1233,2.1234,2.1238,2.124,2.1245,2.1246,2.1252,2.1254,2.1254,2.1255,2.1254,2.1254,2.1256,2.1255,2.1256,2.1255,2.1255,2.1255,0,2.1197,2.1201,2.1209,2.1215,2.1216,2.1221,2.1225,2.123,2.1232,2.1238,2.1239,2.1243,2.1248,2.125,2.1256,2.1257,2.1264,2.1264,2.1263,2.1263,2.1266,2.1265,2.1277,2.1279,2.127,2.127,2.127,0,2.1203,2.1208,2.1214,2.1218,2.1221,2.1226,2.123,2.1232,2.1235,2.1241,2.1244,2.1249,2.1254,2.1262,2.1265,2.1269,2.1269,2.1273,2.127,2.1269,2.1269,2.1268,2.1269,2.1273,2.1274,2.1274,2.1274,0,2.1212,2.1214,2.1219,2.1225,2.1229,2.1234,2.1238,2.124,2.1243,2.1247,2.1253,2.1256,2.1262,2.1267,2.1272,2.1275,2.1274,2.1275,2.1276,2.1275,2.1274,2.1274,2.1264,2.1274,2.1274,2.1274,2.1274,2.1274,2.1219,2.1223,2.1228,2.1234,2.1237,2.1241,2.1245,2.1248,2.1253,2.1258,2.1259,2.1265,2.1269,2.1275,2.1278,2.1282,2.1281,2.1282,2.1283,2.1283,2.1283,2.1274,2.1283,2.1283,2.1283,2.1283,2.1283,0,2.1228,2.1231,2.1236,2.1242,2.1247,2.1247,2.1251,2.1255,2.126,2.1264,2.1268,2.1274,2.1279,2.1282,2.1286,2.1289,2.1289,2.129,2.129,2.129,2.1284,2.1282,2.129,2.129,2.129,2.129,2.129,2.129,2.1233,2.124,2.1242,2.125,2.1253,2.1259,2.1262,2.1265,2.1268,2.1275,2.1279,2.1281,2.1284,2.1289,2.1293,2.1294,2.1296,2.1297,2.1297,2.1291,2.1291,2.129,2.1289,2.1297,2.1297,2.1303,2.1303,2.1303]}]]